When you browse on this site, cookies collect data to enhance your experience and personalize the content and advertising you see.
Visit our Privacy Policy to learn more. By continuing to use the site, you agree to this use of cookies and data.
  • In Austria
  • List of Countries
  • For 7 days
  • Water Temperature
  • Weather Map
  • News
  • Weather Widgets
  • user-avatar
    Login

    Hourly Weather Hlukhova

    Today, 22 September, Sunday

    Time Temperature Precipitation Wind Pressure Humidity
    00:00 +11°C° 0 mm 6 mps 745 mmHg 84%
    01:00 +11°C° 0 mm 6 mps 745 mmHg 82%
    02:00 +12°C° 0 mm 5 mps 745 mmHg 82%
    03:00 +12°C° 0 mm 5 mps 745 mmHg 83%
    04:00 +12°C° 0 mm 5 mps 745 mmHg 84%
    05:00 +12°C° 0 mm 5 mps 745 mmHg 85%
    06:00 +12°C° 0 mm 5 mps 745 mmHg 85%
    07:00 +12°C° 0 mm 5 mps 745 mmHg 84%
    08:00 +12°C° 0 mm 5 mps 745 mmHg 83%
    09:00 +13°C° 0 mm 5 mps 745 mmHg 79%
    10:00 +14°C° 0 mm 5 mps 745 mmHg 74%
    11:00 +14°C° 0 mm 5 mps 745 mmHg 70%
    12:00 +15°C° 0 mm 5 mps 745 mmHg 67%
    13:00 +16°C° 0 mm 5 mps 745 mmHg 65%
    14:00 +17°C° 0 mm 5 mps 744 mmHg 62%
    15:00 +18°C° 0 mm 4 mps 744 mmHg 63%
    16:00 +18°C° 0 mm 4 mps 744 mmHg 65%
    17:00 +17°C° 0 mm 3 mps 743 mmHg 66%
    18:00 +16°C° 0 mm 3 mps 743 mmHg 74%
    19:00 +13°C° 0 mm 3 mps 743 mmHg 81%
    20:00 +12°C° 0 mm 3 mps 743 mmHg 89%
    21:00 +11°C° 0 mm 3 mps 744 mmHg 90%
    22:00 +11°C° 0 mm 3 mps 744 mmHg 91%
    23:00 +11°C° 0 mm 3 mps 744 mmHg 92%

    Tomorrow, 23 September, Monday

    Time Temperature Precipitation Wind Pressure Humidity
    00:00 +10°C° 0 mm 3 mps 745 mmHg 90%
    01:00 +10°C° 0 mm 3 mps 745 mmHg 88%
    02:00 +9°C° 0 mm 3 mps 745 mmHg 86%
    03:00 +9°C° 0 mm 3 mps 746 mmHg 85%
    04:00 +9°C° 0 mm 3 mps 746 mmHg 84%
    05:00 +9°C° 0 mm 3 mps 746 mmHg 83%
    06:00 +9°C° 0 mm 3 mps 746 mmHg 78%
    07:00 +8°C° 0 mm 3 mps 747 mmHg 74%
    08:00 +8°C° 0 mm 3 mps 747 mmHg 70%
    09:00 +8°C° 0 mm 4 mps 747 mmHg 64%
    10:00 +10°C° 0 mm 4 mps 748 mmHg 58%
    11:00 +11°C° 0 mm 4 mps 748 mmHg 52%
    12:00 +12°C° 0 mm 4 mps 748 mmHg 47%
    13:00 +12°C° 0 mm 3 mps 748 mmHg 43%
    14:00 +13°C° 0 mm 3 mps 748 mmHg 39%
    15:00 +12°C° 0 mm 3 mps 748 mmHg 40%
    16:00 +13°C° 0 mm 2 mps 747 mmHg 42%
    17:00 +12°C° 0 mm 2 mps 747 mmHg 44%
    18:00 +9°C° 0 mm 2 mps 748 mmHg 47%
    19:00 +8°C° 0 mm 2 mps 748 mmHg 50%
    20:00 +6°C° 0 mm 2 mps 748 mmHg 52%
    21:00 +5°C° 0 mm 2 mps 748 mmHg 55%
    22:00 +5°C° 0 mm 2 mps 748 mmHg 58%
    23:00 +4°C° 0 mm 2 mps 748 mmHg 60%

    Day after tomorrow, 24 September, Tuesday

    Time Temperature Precipitation Wind Pressure Humidity
    00:00 +3°C° 0 mm 2 mps 748 mmHg 63%
    01:00 +3°C° 0 mm 2 mps 748 mmHg 65%
    02:00 +3°C° 0 mm 2 mps 748 mmHg 67%
    03:00 +2°C° 0 mm 2 mps 748 mmHg 69%
    04:00 +2°C° 0 mm 2 mps 748 mmHg 71%
    05:00 +2°C° 0 mm 2 mps 748 mmHg 73%
    06:00 +3°C° 0 mm 2 mps 748 mmHg 68%
    07:00 +3°C° 0 mm 3 mps 748 mmHg 63%
    08:00 +5°C° 0 mm 3 mps 748 mmHg 58%
    09:00 +8°C° 0 mm 3 mps 748 mmHg 51%
    10:00 +10°C° 0 mm 3 mps 748 mmHg 44%
    11:00 +12°C° 0 mm 3 mps 748 mmHg 38%
    12:00 +13°C° 0 mm 3 mps 747 mmHg 36%
    13:00 +14°C° 0 mm 3 mps 747 mmHg 35%
    14:00 +16°C° 0 mm 2 mps 746 mmHg 34%
    15:00 +15°C° 0 mm 2 mps 746 mmHg 38%
    16:00 +14°C° 0 mm 2 mps 746 mmHg 43%
    17:00 +14°C° 0 mm 2 mps 745 mmHg 47%
    18:00 +12°C° 0 mm 2 mps 745 mmHg 49%
    19:00 +9°C° 0 mm 2 mps 745 mmHg 51%
    20:00 +7°C° 0 mm 3 mps 745 mmHg 52%
    21:00 +7°C° 0 mm 3 mps 745 mmHg 51%
    22:00 +7°C° 0 mm 3 mps 745 mmHg 49%
    23:00 +5°C° 0 mm 3 mps 745 mmHg 47%

    25 September, Wednesday

    Time Temperature Precipitation Wind Pressure Humidity
    00:00 +5°C° 0 mm 3 mps 745 mmHg 48%
    01:00 +4°C° 0 mm 3 mps 745 mmHg 49%
    02:00 +4°C° 0 mm 3 mps 745 mmHg 49%
    03:00 +4°C° 0 mm 3 mps 745 mmHg 51%
    04:00 +3°C° 0 mm 3 mps 744 mmHg 52%
    05:00 +3°C° 0 mm 3 mps 744 mmHg 53%
    06:00 +4°C° 0 mm 3 mps 744 mmHg 51%
    07:00 +6°C° 0 mm 4 mps 744 mmHg 49%
    08:00 +7°C° 0 mm 4 mps 744 mmHg 48%
    09:00 +10°C° 0 mm 4 mps 744 mmHg 47%
    10:00 +12°C° 0 mm 4 mps 744 mmHg 46%
    11:00 +14°C° 0 mm 4 mps 744 mmHg 45%
    12:00 +15°C° 0 mm 4 mps 743 mmHg 45%
    13:00 +18°C° 0 mm 4 mps 743 mmHg 45%
    14:00 +19°C° 0 mm 4 mps 742 mmHg 45%
    15:00 +19°C° 0 mm 4 mps 742 mmHg 49%
    16:00 +18°C° 0 mm 3 mps 742 mmHg 54%
    17:00 +17°C° 0 mm 3 mps 741 mmHg 58%
    18:00 +16°C° 0.1 mm 3 mps 741 mmHg 62%
    19:00 +14°C° 0.1 mm 4 mps 741 mmHg 65%
    20:00 +13°C° 0.1 mm 4 mps 741 mmHg 69%
    21:00 +13°C° 0.4 mm 4 mps 741 mmHg 72%
    22:00 +13°C° 0.4 mm 4 mps 741 mmHg 76%
    23:00 +12°C° 0.4 mm 4 mps 741 mmHg 80%

    26 September, Thursday

    Time Temperature Precipitation Wind Pressure Humidity
    00:00 +12°C° 0.1 mm 4 mps 741 mmHg 81%
    01:00 +13°C° 0.1 mm 4 mps 740 mmHg 82%
    02:00 +13°C° 0.1 mm 3 mps 740 mmHg 83%
    03:00 +12°C° 0.2 mm 3 mps 740 mmHg 85%
    04:00 +12°C° 0.2 mm 3 mps 740 mmHg 88%
    05:00 +12°C° 0.2 mm 3 mps 740 mmHg 90%
    06:00 +12°C° 0.2 mm 3 mps 740 mmHg 91%
    07:00 +12°C° 0.2 mm 3 mps 740 mmHg 91%
    08:00 +13°C° 0.2 mm 3 mps 740 mmHg 92%
    09:00 +14°C° 0.1 mm 3 mps 740 mmHg 88%
    10:00 +16°C° 0.1 mm 3 mps 740 mmHg 83%
    11:00 +17°C° 0.1 mm 3 mps 741 mmHg 79%
    12:00 +17°C° 0.6 mm 2 mps 740 mmHg 79%
    13:00 +17°C° 0.6 mm 2 mps 740 mmHg 80%
    14:00 +17°C° 0.6 mm 2 mps 740 mmHg 81%
    15:00 +17°C° 0.4 mm 2 mps 740 mmHg 81%
    16:00 +18°C° 0.4 mm 1 mps 740 mmHg 81%
    17:00 +18°C° 0.4 mm 1 mps 740 mmHg 82%
    18:00 +16°C° 0.2 mm 1 mps 740 mmHg 84%
    19:00 +15°C° 0.2 mm 1 mps 740 mmHg 87%
    20:00 +14°C° 0.2 mm 1 mps 740 mmHg 90%
    21:00 +13°C° 0 mm 2 mps 740 mmHg 91%
    22:00 +13°C° 0 mm 2 mps 740 mmHg 93%
    23:00 +12°C° 0 mm 2 mps 740 mmHg 94%

    27 September, Friday

    Time Temperature Precipitation Wind Pressure Humidity
    00:00 +12°C° 0 mm 2 mps 740 mmHg 95%
    01:00 +12°C° 0 mm 2 mps 740 mmHg 95%
    02:00 +10°C° 0 mm 2 mps 741 mmHg 96%
    03:00 +10°C° 0 mm 3 mps 741 mmHg 96%
    04:00 +10°C° 0 mm 3 mps 741 mmHg 97%
    05:00 +10°C° 0 mm 3 mps 741 mmHg 97%
    06:00 +11°C° 0 mm 3 mps 741 mmHg 95%
    07:00 +11°C° 0 mm 4 mps 741 mmHg 93%
    08:00 +12°C° 0 mm 4 mps 741 mmHg 90%
    09:00 +12°C° 0 mm 4 mps 741 mmHg 87%
    10:00 +13°C° 0 mm 4 mps 742 mmHg 85%
    11:00 +13°C° 0 mm 4 mps 742 mmHg 82%
    12:00 +13°C° 0.3 mm 4 mps 742 mmHg 84%
    13:00 +13°C° 0.3 mm 4 mps 742 mmHg 86%
    14:00 +13°C° 0.3 mm 3 mps 742 mmHg 88%
    15:00 +13°C° 0.2 mm 3 mps 742 mmHg 86%
    16:00 +13°C° 0.2 mm 3 mps 743 mmHg 84%
    17:00 +13°C° 0.2 mm 3 mps 743 mmHg 82%
    18:00 +12°C° 0 mm 3 mps 743 mmHg 85%
    19:00 +10°C° 0 mm 3 mps 744 mmHg 88%
    20:00 +9°C° 0 mm 2 mps 744 mmHg 91%
    21:00 +9°C° 0 mm 2 mps 744 mmHg 91%
    22:00 +9°C° 0 mm 2 mps 745 mmHg 91%
    23:00 +9°C° 0 mm 2 mps 745 mmHg 91%
    Show more